Voltar ao catálogo

DMSP 5D-2 F14 DEB

AtivoSSO
NORAD 62938·DEBRIS·🇺🇸 United States

Lançado Apr 4, 1997 de Vandenberg Space Force Base

Loading…

Próximas Passagens (próximas 24 horas)

TLE

AtualizadoSource: Space-Track

Época: Sep 13, 2026, 16:54 UTC

1 62938U 97012J   26256.70464892  .00001706  00000-0  82741-3 0  9997
2 62938  98.8274 309.8117 0001238 135.5418 224.5857 14.19714819 89665

Acompanhe DMSP 5D-2 F14 DEB em tempo real com AllMySat

Download on the App Store